Tracking 29059 objects as of 19-Jun-2024
HD Live streaming from Space Station
objects crossing your sky now

OBJECT BE

Track OBJECT BE now!
10-day predictions


NORAD ID: 43810
Int'l Code: 2018-099BE
Perigee: 563.4 km
Apogee: 572.9 km
Inclination: 97.5 °
Period: 95.9 minutes
Semi major axis: 6939 km
RCS: Unknown
Launch date: December 3, 2018
Source: (TBD)
Launch site: AIR FORCE WESTERN TEST RANGE (AFWTR)
Your satellite tracking list
Your tracking list is empty




NASA's NSSDC Master Catalog

Two Line Element Set (TLE):
1 43810U 18099BE  24170.92208310  .00002911  00000-0  22704-3 0  9993
2 43810  97.4916 223.9031 0006865 340.7782  19.3183 15.01911932302338
Source of the keplerian elements: AFSPC